NIEUW!!! Volg onze weer- en natuurfoto's op Instagram @ weerstationmaaseik.be

WS Maaseik 1 Meer informatie WS Maaseik 1


WS Maaseik 2 Meer informatie WS Maaseik 2


Regen radar Meer informatie rain snow radar


Bezoek onze andere website:

Vorige versie
weerstation Maaseik


Bezoek ook eens deze sites:

Weerstation Geleen



Het weer levert geen direct gevaar op.    Er zijn geen waarschuwingen afgegeven.

15 daagse weersverwachting Bradford (GB)

  • Overzicht
  • Per uur
  • 15 dagen
  • Extra
  • Vergelijk
  • Kaarten
  • Dagkaart
  • Meer »
  • Info
  • Statistieken
  • Directe link
    Temp 6h Neerslag Wind  
 08:13     16:24    Daglengte: 8:11 Morgen
00:00
1.1 mm
5
06:00
4.5 mm
5
12:00
11.4 mm
7
18:00
15.1 mm
9
 08:11     16:26    Daglengte: 8:15 Woensdag 20 Jan
00:00
18.8 mm
8
06:00
26.6 mm
6
12:00
23.7 mm
6
18:00
31.7 mm
6
 08:10     16:28    Daglengte: 8:18 Donderdag 21 Jan
00:00
55.1 mm
6
06:00
58.0 mm
10
12:00
 
9
18:00
 
7
Locatie info
Region: England
Latitude: 53.7957°N
Longitude: -1.7583°E
110 masl
Postcode: BD1 2
Temp/Neerslag /Baro Onweer/DauwpuntSneeuw
    Temp Baro 1h Neerslag Dauwpunt Wind UV BewolkingSneeuw  
 08:14     16:23    Daglengte: 8:09 Vandaag
23:00
Voelt als: 2.8°
1005.4 hPa
48%
5.3°
5
Windvlaag: 2.5 m/s
91%
 08:13     16:24    Daglengte: 8:11 Morgen
00:00
Voelt als: 3.1°
1004.3 hPa 1.1 mm
82%
5.4°
5
Windvlaag: 2.3 m/s
91%
01:00
Voelt als: 3.6°
1002.9 hPa
82%
5.5°
5
Windvlaag: 2.6 m/s
91%
02:00
Voelt als: 3.9°
1002.1 hPa 0.8 mm
82%
5.6°
5
Windvlaag: 2.6 m/s
90%
03:00
Voelt als: 4.1°
1001.1 hPa 0.8 mm
81%
5.8°
4
Windvlaag: 3 m/s
91%
04:00
Voelt als: 4.1°
1000.1 hPa 0.7 mm
82%
5.7°
4
Windvlaag: 3 m/s
91%
05:00
Voelt als: 4.0°
999.6 hPa 0.9 mm
82%
5.8°
5
Windvlaag: 3 m/s
90%
06:00
Voelt als: 4.1°
999.0 hPa 1.3 mm
82%
5.6°
5
Windvlaag: 2.7 m/s
91%
07:00
Voelt als: 4.1°
998.7 hPa 1.6 mm
82%
5.5°
4
Windvlaag: 2.4 m/s
90%
08:00
Voelt als: 4.6°
998.4 hPa 1.8 mm
82%
6.1°
5
Windvlaag: 3.4 m/s
90%
09:00
Voelt als: 4.7°
998.3 hPa 2.0 mm
82%
6.3°
5
Windvlaag: 3.9 m/s
90%
10:00
Voelt als: 5.0°
997.8 hPa 2.0 mm
82%
6.5°
4
Windvlaag: 4.2 m/s
91%
11:00
Voelt als: 4.7°
997.1 hPa 2.2 mm
82%
6.8°
6
Windvlaag: 4.8 m/s
91%
12:00
Voelt als: 4.6°
996.5 hPa 1.9 mm
82%
6.9°
7
Windvlaag: 5.1 m/s
91%
13:00
Voelt als: 4.8°
995.5 hPa 2.1 mm
82%
6.6°
7
Windvlaag: 6.1 m/s
90%
14:00
Voelt als: 5.0°
994.4 hPa 2.5 mm
82%
6.7°
7
Windvlaag: 6.1 m/s
91%
15:00
Voelt als: 5.3°
993.3 hPa 2.7 mm
82%
7.1°
7
Windvlaag: 6.6 m/s
90%
16:00
Voelt als: 5.2°
992.1 hPa 2.9 mm
82%
7.4°
8
Windvlaag: 6.3 m/s
88%
17:00
Voelt als: 5.1°
991.0 hPa 2.5 mm
82%
7.5°
9
Windvlaag: 6.2 m/s
90%
18:00
Voelt als: 5.1°
990.2 hPa 2.5 mm
82%
7.5°
9
Windvlaag: 6.4 m/s
91%
19:00
Voelt als: 5.2°
989.4 hPa 2.4 mm
82%
7.6°
9
Windvlaag: 6.5 m/s
90%
20:00
Voelt als: 5.3°
988.9 hPa 3.3 mm
82%
7.7°
9
Windvlaag: 5.8 m/s
91%
21:00
Voelt als: 5.3°
987.8 hPa 3.5 mm
82%
7.8°
9
Windvlaag: 5.9 m/s
90%
22:00
Voelt als: 5.5°
987.0 hPa 3.0 mm
82%
8.1°
9
Windvlaag: 6.3 m/s
91%
23:00
Voelt als: 5.7°
986.3 hPa 3.1 mm
82%
8.2°
9
Windvlaag: 6.3 m/s
91%
 08:11     16:26    Daglengte: 8:15 Woensdag 20 Jan
00:00
Voelt als: 5.8°
985.7 hPa 3.5 mm
79%
8.2°
8
Windvlaag: 6.6 m/s
90%
01:00
10°
Voelt als: 6.0°
985.2 hPa 5.0 mm
80%
8.2°
8
Windvlaag: 6.4 m/s
91%
02:00
Voelt als: 5.8°
984.9 hPa 5.0 mm
78%
8.0°
8
Windvlaag: 6.4 m/s
91%
03:00
Voelt als: 5.2°
984.5 hPa 5.0 mm
75%
7.7°
7
Windvlaag: 6.1 m/s
91%
04:00
Voelt als: 5.6°
983.7 hPa 4.7 mm
82%
7.5°
6
Windvlaag: 4 m/s
89%
05:00
Voelt als: 5.6°
983.2 hPa 3.1 mm
82%
6.9°
6
Windvlaag: 3.8 m/s
91%
06:00
Voelt als: 5.5°
982.9 hPa 3.7 mm
82%
6.7°
6
Windvlaag: 3.5 m/s
91%
07:00
Voelt als: 5.1°
982.7 hPa 3.9 mm
82%
6.7°
6
Windvlaag: 3.6 m/s
91%
08:00
Voelt als: 4.9°
982.4 hPa 3.6 mm
82%
6.2°
6
Windvlaag: 3.9 m/s
91%
09:00
Voelt als: 5.1°
982.2 hPa 3.5 mm
82%
6.5°
5
Windvlaag: 3.4 m/s
91%
10:00
Voelt als: 5.9°
981.7 hPa 3.9 mm
82%
6.8°
4
Windvlaag: 2.8 m/s
91%
11:00
Voelt als: 6.1°
981.0 hPa 4.6 mm
82%
7.0°
4
Windvlaag: 2.5 m/s
91%
12:00
Voelt als: 5.8°
980.2 hPa 4.3 mm
82%
7.3°
6
Windvlaag: 2.9 m/s
90%
13:00
Voelt als: 5.8°
979.2 hPa 4.2 mm
82%
7.2°
5
Windvlaag: 3.2 m/s
90%
14:00
Voelt als: 5.0°
978.3 hPa 4.3 mm
82%
6.4°
4
Windvlaag: 2.2 m/s
89%
15:00
Voelt als: 5.4°
976.6 hPa 4.8 mm
100%
7.4°
6
Windvlaag: 0.4 m/s
100%2 cm
16:00
Voelt als: 5.2°
976.1 hPa 5.0 mm
97%
7.3°
6
Windvlaag: 0.6 m/s
97%4 cm
17:00
Voelt als: 4.6°
976.2 hPa 5.3 mm
98%
6.5°
6
Windvlaag: 1.2 m/s
99%5 cm
18:00
Voelt als: 4.0°
975.5 hPa 8.0 mm
100%
6.2°
6
Windvlaag: 0.9 m/s
100%8 cm
19:00
Voelt als: 3.8°
974.7 hPa 8.6 mm
100%
6.1°
7
Windvlaag: 0 m/s
99%9 cm
20:00
Voelt als: 3.6°
974.0 hPa
100%
5.7°
7
Windvlaag: -0.1 m/s
76%11 cm
21:00
Voelt als: 3.2°
973.4 hPa 10.2 mm
100%
5.3°
6
Windvlaag: 0.8 m/s
88%14 cm
22:00
Voelt als: 1.8°
972.8 hPa 11.3 mm
100%
4.1°
5
Windvlaag: 1.1 m/s
88%16 cm
23:00
Voelt als: -1.6°
972.4 hPa 12.5 mm
100%
2.3°
6
Windvlaag: 2 m/s
88%18 cm
 08:10     16:28    Daglengte: 8:18 Donderdag 21 Jan
00:00
Voelt als: -2.9°
972.3 hPa 12.6 mm
100%
1.5°
6
Windvlaag: 2.2 m/s
88%20 cm
01:00
Voelt als: -3.7°
971.9 hPa 12.6 mm
100%
1.3°
7
Windvlaag: 3.6 m/s
88%21 cm
02:00
Voelt als: -4.9°
971.8 hPa 9.3 mm
100%
0.9°
9
Windvlaag: 5 m/s
85%22 cm
03:00
Voelt als: -5.1°
972.5 hPa 9.4 mm
100%
0.4°
9
Windvlaag: 6.1 m/s
95%22 cm
04:00
Voelt als: -5.1°
973.3 hPa 13.2 mm
89%
0.6°
10
Windvlaag: 6.2 m/s
82%23 cm
05:00
Voelt als: -5.2°
974.5 hPa 13.5 mm
28%
0.2°
11
Windvlaag: 5.6 m/s
71%23 cm
06:00
Voelt als: -4.3°
975.6 hPa
30%
0.2°
10
Windvlaag: 4.9 m/s
58%22 cm
07:00
Voelt als: -3.9°
976.8 hPa
32%
0.0°
10
Windvlaag: 4.8 m/s
46%22 cm
08:00
Voelt als: -3.7°
977.7 hPa
30%
-0.7°
9
Windvlaag: 4.1 m/s
16%22 cm
09:00
Voelt als: -4.0°
978.7 hPa
37%
-0.1°
9
Windvlaag: 3.5 m/s
30%22 cm
10:00
Voelt als: -3.3°
979.3 hPa
31%
1.1°
8
Windvlaag: 4.2 m/s
61%22 cm
11:00
Voelt als: -2.8°
979.8 hPa
25%
1.5°
8
Windvlaag: 3.6 m/s
66%22 cm
12:00
Voelt als: -2.6°
979.9 hPa
27%
1.4°
9
Windvlaag: 3.9 m/s
57%21 cm
13:00
Voelt als: -2.7°
979.6 hPa
29%
1.2°
8
Windvlaag: 15.3 m/s
67%21 cm
14:00
Voelt als: -2.8°
979.7 hPa
24%
1.2°
8
Windvlaag: 14.2 m/s
66%20 cm
15:00
Voelt als: -3.0°
979.8 hPa
23%
1.1°
8
Windvlaag: 13.6 m/s
66%20 cm
16:00
Voelt als: -3.0°
980.0 hPa
21%
0.7°
8
Windvlaag: 13.2 m/s
63%19 cm
17:00
Voelt als: -3.2°
980.2 hPa
22%
0.4°
7
Windvlaag: 13.6 m/s
73%19 cm
18:00
Voelt als: -3.3°
980.4 hPa
21%
0.3°
7
Windvlaag: 1.8 m/s
84%19 cm
19:00
Voelt als: -3.3°
980.7 hPa
22%
0.3°
8
Windvlaag: 12.7 m/s
75%19 cm
20:00
Voelt als: -3.6°
981.1 hPa
22%
-0.2°
7
Windvlaag: 12.5 m/s
59%19 cm
21:00
Voelt als: -3.7°
981.5 hPa
21%
-0.2°
7
Windvlaag: 12.8 m/s
59%19 cm
22:00
Voelt als: -4.0°
982.0 hPa
21%
-0.4°
7
Windvlaag: 13.2 m/s
57%19 cm
Temp/Neerslag /Baro Onweer/DauwpuntSneeuw
    Temp Baro Neerslag Dauwpunt Wind BewolkingSneeuw  
 08:13     16:24    Daglengte: 8:11 Morgen
00:00
Voelt als: 3.1°
1004.3 hPa 1.1 mm 5.4°
5
91%
03:00
Voelt als: 4.1°
1001.1 hPa 1.6 mm 5.8°
4
91%
06:00
Voelt als: 4.1°
999.0 hPa 2.9 mm 5.6°
5
91%
09:00
Voelt als: 4.7°
998.3 hPa 5.4 mm 6.3°
5
90%
12:00
Voelt als: 4.6°
996.5 hPa 6.0 mm 6.9°
7
91%
15:00
Voelt als: 5.3°
993.3 hPa 7.2 mm 7.1°
7
90%
18:00
Voelt als: 5.1°
990.2 hPa 7.9 mm 7.5°
9
91%
21:00
Voelt als: 5.3°
987.8 hPa 9.2 mm 7.8°
9
90%
 08:11     16:26    Daglengte: 8:15 Woensdag 20 Jan
00:00
Voelt als: 5.8°
985.7 hPa 9.6 mm 8.2°
8
90%
03:00
Voelt als: 5.2°
984.5 hPa 15.0 mm 7.7°
7
91%
06:00
Voelt als: 5.5°
982.9 hPa 11.5 mm 6.7°
6
91%
09:00
Voelt als: 5.1°
982.2 hPa 11.0 mm 6.5°
5
91%
12:00
Voelt als: 5.8°
980.2 hPa 12.7 mm 7.3°
6
90%
15:00
Voelt als: 5.4°
976.6 hPa 13.3 mm 7.4°
6
100%2 cm
18:00
Voelt als: 4.0°
975.5 hPa 18.4 mm 6.2°
6
100%8 cm
21:00
Voelt als: 3.2°
973.4 hPa 18.8 mm 5.3°
6
88%14 cm
 08:10     16:28    Daglengte: 8:18 Donderdag 21 Jan
00:00
Voelt als: -2.9°
972.3 hPa 36.3 mm 1.5°
6
88%20 cm
03:00
Voelt als: -5.1°
972.5 hPa 31.3 mm 0.4°
9
95%22 cm
06:00
Voelt als: -4.3°
975.6 hPa 26.7 mm 0.2°
10
58%22 cm
09:00
Voelt als: -4.0°
978.7 hPa   -0.1°
9
30%22 cm
12:00
Voelt als: -2.6°
979.9 hPa   1.4°
9
57%21 cm
15:00
Voelt als: -3.0°
979.8 hPa   1.1°
8
66%20 cm
18:00
Voelt als: -3.3°
980.4 hPa   0.3°
7
84%19 cm
21:00
Voelt als: -3.7°
981.5 hPa   -0.2°
7
59%19 cm
 08:09     16:30    Daglengte: 8:21 Vrijdag 22 Jan
00:00
Voelt als: -3.9°
982.9 hPa   -0.6°
7
43%19 cm
03:00
Voelt als: -3.6°
985.8 hPa 87.0 mm -0.4°
8
36%
06:00
Voelt als: -3.7°
987.3 hPa 87.0 mm -0.5°
7
32%
09:00
Voelt als: -2.4°
988.9 hPa 87.0 mm -0.4°
7
23%
12:00
Voelt als: -0.9°
990.4 hPa 87.0 mm -0.4°
7
13%
15:00
Voelt als: -2.2°
991.0 hPa 87.0 mm -0.9°
7
10%
18:00
Voelt als: -3.5°
991.7 hPa 87.0 mm -1.5°
6
7%
21:00
Voelt als: -3.6°
992.1 hPa 87.0 mm -1.4°
4
29% warningclass
 08:07     16:32    Daglengte: 8:25 Zaterdag 23 Jan
00:00
Voelt als: -3.3°
992.5 hPa 87.1 mm -1.4°
3
52% warningclass
03:00
-0°
Voelt als: -4.1°
992.1 hPa 87.4 mm -1.7°
3
34% warningclass
06:00
-1°
Voelt als: -4.8°
991.7 hPa 87.7 mm -2.3°
3
17% warningclass
09:00
Voelt als: -3.7°
992.4 hPa 87.7 mm -1.9°
4
28% warningclass
12:00
Voelt als: -2.2°
993.1 hPa 87.7 mm -1.2°
5
40%
15:00
Voelt als: -3.7°
994.3 hPa 87.7 mm -1.3°
5
64% warningclass
18:00
-0°
Voelt als: -5.3°
995.6 hPa 87.7 mm -1.6°
5
88% warningclass
21:00
-0°
Voelt als: -5.1°
997.2 hPa 87.7 mm -1.8°
5
46% warningclass
 08:06     16:34    Daglengte: 8:28 Zondag 24 Jan
00:00
-0°
Voelt als: -4.9°
998.8 hPa 87.7 mm -2.1°
5
3% warningclass
03:00
-1°
Voelt als: -5.4°
998.8 hPa 88.1 mm -2.4°
4
46% warningclass
06:00
-1°
Voelt als: -5.9°
998.9 hPa 92.0 mm -2.9°
4
90% warningclass
09:00
Voelt als: -4.4°
998.8 hPa 92.1 mm -1.8°
5
75% warningclass
12:00
Voelt als: -2.5°
998.6 hPa 92.1 mm -0.7°
5
59%
15:00
Voelt als: -3.1°
999.6 hPa 92.1 mm -0.5°
5
73%
18:00
Voelt als: -3.8°
1000.6 hPa 92.1 mm -0.5°
4
86% warningclass
21:00
Voelt als: -4.1°
1002.8 hPa 92.1 mm -0.9°
4
45% warningclass
 08:04     16:36    Daglengte: 8:32 Maandag 25 Jan
00:00
Voelt als: -4.3°
1005.0 hPa 92.1 mm -1.3°
4
4% warningclass
03:00
Voelt als: -3.7°
1005.8 hPa 92.1 mm -0.6°
5
44% warningclass
06:00
Voelt als: -3.1°
1006.5 hPa 92.1 mm 0.1°
6
83%
09:00
Voelt als: -1.7°
1008.0 hPa 92.1 mm 0.7°
6
64%
12:00
Voelt als: -0.2°
1009.5 hPa 92.1 mm 1.5°
6
46%
15:00
Voelt als: -1.3°
1009.2 hPa 92.1 mm 0.7°
4
69%
18:00
Voelt als: -2.1°
1009.0 hPa 92.1 mm -0.1°
3
92% warningclass
21:00
Voelt als: -2.6°
1006.2 hPa   0.0°
3
90% warningclass
 08:03     16:38    Daglengte: 8:35 Dinsdag 26 Jan
00:00
Voelt als: -3.2°
1003.3 hPa 184.2 mm 0.1°
3
88% warningclass
06:00
Voelt als: 0.8°
998.9 hPa 188.1 mm 3.8°
7
61%
12:00
Voelt als: 1.8°
999.2 hPa 195.9 mm 3.6°
4
90%
18:00
Voelt als: 2.7°
992.7 hPa 196.0 mm 5.5°
7
92%
 08:01     16:39    Daglengte: 8:38 Woensdag 27 Jan
00:00
Voelt als: 3.8°
991.8 hPa 196.5 mm 7.0°
9
92%
06:00
Voelt als: 1.8°
992.8 hPa 200.2 mm 4.9°
11
92%
12:00
Voelt als: 2.3°
999.1 hPa 201.8 mm 3.5°
9
22%
18:00
Voelt als: 0.5°
1002.4 hPa 201.9 mm 3.2°
5
85%
 08:00     16:41    Daglengte: 8:41 Donderdag 28 Jan
00:00
Voelt als: 0.5°
1003.3 hPa 201.9 mm 2.7°
3
92%
06:00
Voelt als: -0.2°
1005.8 hPa 201.9 mm 2.7°
5
89%
12:00
Voelt als: 0.2°
1010.9 hPa 202.1 mm -2.4°
4
1%
18:00
Voelt als: 4.0°
997.3 hPa 2.4 mm 3.4°
1
92%
 07:58     16:43    Daglengte: 8:45 Vrijdag 29 Jan
00:00
Voelt als: 3.7°
998.2 hPa 2.3 mm 2.6°
1
86%
06:00
Voelt als: 1.8°
999.2 hPa 1.1 mm 1.9°
2
86%
12:00
Voelt als: 3.2°
1000.6 hPa 1.2 mm 2.4°
2
85%
18:00
Voelt als: 1.8°
1000.5 hPa 1.9 mm 2.2°
2
80%
 07:56     16:45    Daglengte: 8:49 Zaterdag 30 Jan
00:00
Voelt als: 1.0°
999.7 hPa 2.4 mm 2.3°
3
77%
06:00
Voelt als: 0.8°
998.1 hPa 1.3 mm 2.0°
4
81%
12:00
Voelt als: 2.8°
998.0 hPa 1.1 mm 2.7°
3
76%
18:00
Voelt als: 2.2°
997.6 hPa 0.7 mm 2.3°
2
86%
 07:55     16:47    Daglengte: 8:52 Zondag 31 Jan
00:00
Voelt als: 2.6°
998.4 hPa 0.9 mm 1.9°
1
82%
06:00
Voelt als: 2.0°
997.9 hPa 1.7 mm 1.9°
1
87%
12:00
Voelt als: 1.8°
1000.3 hPa 1.1 mm 1.5°
3
81%
18:00
Voelt als: 0.8°
1001.0 hPa 0.5 mm 0.7°
2
77%
 07:53     16:49    Daglengte: 8:56 Maandag 01 Feb
00:00
Voelt als: -0.3°
1001.6 hPa 0.9 mm 0.3°
3
67%
06:00
Voelt als: -0.8°
1000.8 hPa 0.7 mm 0.3°
3
65%
12:00
Voelt als: 1.4°
1002.1 hPa 0.5 mm 1.5°
4
62%
18:00
Voelt als: 0.7°
1002.9 hPa 0.4 mm 0.7°
2
65%
 07:51     16:51    Daglengte: 9:00 Dinsdag 02 Feb
00:00
Voelt als: -0.2°
1004.2 hPa 0.7 mm 0.2°
2
64%
06:00
Voelt als: -0.3°
1004.2 hPa 0.5 mm 0.0°
2
57%
12:00
Voelt als: 2.1°
1005.5 hPa 0.7 mm 1.0°
3
60%
18:00
Voelt als: 1.0°
1006.2 hPa 0.7 mm 0.6°
2
64%
  CAPE Lifted Index Hail Supercell Tornado SRH 3km CL BTM PRES CL TOP PRES Swiss DWD icon SMHI TS
 08:14     16:23    Daglengte: 8:09 Vandaag
23:00 0 J/kg 4.1 K 0 % 0 % 0 % 0 m²/s² 0 0 4.7 61
 08:13     16:24    Daglengte: 8:11 Morgen
00:00 0 J/kg 4.9 K 0 % 0 % 0 % 0 m²/s² 0 0 5.74 55
01:00 0 J/kg 5.3 K 0 % 0 % 0 % 0 m²/s² 0 0 5.9 61
02:00 0 J/kg 5.7 K 0 % 0 % 0 % 0 m²/s² 0 0 6.18 51
03:00 0 J/kg 6.7 K 0 % 0 % 0 % 0 m²/s² 0 0 7.15 51
04:00 0 J/kg 6.3 K 0 % 0 % 0 % 0 m²/s² 0 0 6.66 61
05:00 8 J/kg 7.2 K 0 % 0 % 0 % 0 m²/s² 0 0 7.56 61
06:00 3 J/kg 7.3 K 0 % 0 % 0 % 0 m²/s² 0 0 7.63 61
07:00 0 J/kg 6.6 K 0 % 0 % 0 % 0 m²/s² 0 0 6.87 61
08:00 5 J/kg 5.6 K 0 % 0 % 0 % 0 m²/s² 0 0 5.87 61
09:00 2 J/kg 5.7 K 0 % 0 % 0 % 0 m²/s² 0 0 6.03 61
10:00 2 J/kg 5.5 K 0 % 0 % 0 % 0 m²/s² 0 0 5.86 61
11:00 1 J/kg 5.0 K 0 % 0 % 0 % 0 m²/s² 0 0 5.57 61
12:00 0 J/kg 4.5 K 0 % 0 % 0 % 0 m²/s² 0 0 4.95 61
13:00 4 J/kg 4.5 K 0 % 0 % 0 % 0 m²/s² 0 0 4.65 61
14:00 0 J/kg 3.4 K 0 % 0 % 0 % 0 m²/s² 0 0 3.64 61
15:00 0 J/kg 2.6 K 0 % 0 % 0 % 0 m²/s² 0 0 2.96 61
16:00 0 J/kg 1.9 K 0 % 0 % 0 % 0 m²/s² 0 0 2.44 61
17:00 0 J/kg 1.2 K 0 % 0 % 0 % 0 m²/s² 0 0 1.95 61
18:00 0 J/kg 1.3 K 0 % 0 % 0 % 0 m²/s² 0 0 2.29 61
19:00 0 J/kg 1.4 K 0 % 0 % 0 % 0 m²/s² 0 0 2.39 61
20:00 3 J/kg 1.3 K 0 % 0 % 0 % 0 m²/s² 0 0 1.75 61
21:00 0 J/kg 1.7 K 0 % 0 % 0 % 0 m²/s² 0 0 2.15 61
22:00 0 J/kg 1.9 K 0 % 0 % 0 % 0 m²/s² 0 0 2.62 61
23:00 3 J/kg 1.3 K 0 % 0 % 0 % 0 m²/s² 0 0 1.63 61
 08:11     16:26    Daglengte: 8:15 Woensdag 20 Jan
00:00 0 J/kg 0.4 K 0 % 0 % 0 % 0 m²/s² 0 0 1.24 61
01:00 5 J/kg 1.1 K 0 % 0 % 0 % 0 m²/s² 0 0 2.27 3
02:00 14 J/kg 1.3 K 0 % 0 % 0 % 0 m²/s² 0 0 2.2 3
03:00 3 J/kg 2.0 K 0 % 0 % 0 % 0 m²/s² 0 0 2.48 3
04:00 2 J/kg 2.8 K 0 % 0 % 0 % 0 m²/s² 0 0 3.13 3
05:00 2 J/kg 3.2 K 0 % 0 % 0 % 0 m²/s² 0 0 3.53 61
06:00 1 J/kg 3.5 K 0 % 0 % 0 % 0 m²/s² 0 0 4.22 61
07:00 4 J/kg 4.0 K 0 % 0 % 0 % 0 m²/s² 0 0 4.63 61
08:00 1 J/kg 4.5 K 0 % 0 % 0 % 0 m²/s² 0 0 5.16 61
09:00 0 J/kg 5.1 K 0 % 0 % 0 % 0 m²/s² 0 0 5.52 61
10:00 0 J/kg 5.1 K 0 % 0 % 0 % 0 m²/s² 0 0 5.46 61
11:00 2 J/kg 5.2 K 0 % 0 % 0 % 0 m²/s² 0 0 5.56 63
12:00 3 J/kg 5.6 K 0 % 0 % 0 % 0 m²/s² 0 0 5.93 61
13:00 5 J/kg 5.9 K 0 % 0 % 0 % 0 m²/s² 0 0 6.2 61
14:00 3 J/kg 5.8 K 0 % 0 % 0 % 0 m²/s² 0 0 6.1 61
15:00 0 J/kg 5.9 K 0 % 0 % 0 % 0 m²/s² 0 0 6.2 80
16:00 0 J/kg 6.2 K 0 % 0 % 0 % 0 m²/s² 0 0 6.5 80
17:00 0 J/kg 6.1 K 0 % 0 % 0 % 0 m²/s² 0 0 6.34 3
18:00 0 J/kg 4.9 K 0 % 0 % 0 % 0 m²/s² 0 0 5.65 80
19:00 0 J/kg 4.3 K 0 % 0 % 0 % 0 m²/s² 0 0 4.75 80
20:00 0 J/kg 4.8 K 0 % 0 % 0 % 0 m²/s² 0 0 5.07 61
21:00 0 J/kg 4.8 K 0 % 0 % 0 % 0 m²/s² 0 0 5.25 61
22:00 0 J/kg 4.7 K 0 % 0 % 0 % 0 m²/s² 0 0 4.97 61
23:00 0 J/kg 5.9 K 0 % 0 % 0 % 0 m²/s² 0 0 6.26 61
 08:10     16:28    Daglengte: 8:18 Donderdag 21 Jan
00:00 0 J/kg 6.8 K 0 % 0 % 0 % 0 m²/s² 0 0 7.16 61
01:00 0 J/kg 7.4 K 0 % 0 % 0 % 0 m²/s² 0 0 7.67 61
02:00 0 J/kg 6.4 K 0 % 0 % 0 % 0 m²/s² 0 0 6.88 61
03:00 0 J/kg 5.7 K 0 % 0 % 0 % 0 m²/s² 0 0 6.27 61
04:00 0 J/kg 4.9 K 0 % 0 % 0 % 0 m²/s² 0 0 5.56 61
05:00 0 J/kg 4.7 K 0 % 0 % 0 % 0 m²/s² 0 0 5.48 3
06:00 0 J/kg 4.2 K 0 % 0 % 0 % 0 m²/s² 0 0 5.67 2
07:00 0 J/kg 4.4 K 0 % 0 % 0 % 0 m²/s² 0 0 7.34 2
08:00 0 J/kg 4.2 K 0 % 0 % 0 % 0 m²/s² 0 0 7.2 2
09:00 0 J/kg 3.3 K 0 % 0 % 0 % 0 m²/s² 0 0 6.63 2
10:00 13 J/kg 2.4 K 0 % 0 % 0 % 0 m²/s² 0 0 6.3 2
11:00 37 J/kg 2.0 K 0 % 0 % 0 % 0 m²/s² 0 0 5 1
12:00 13 J/kg 1.6 K 0 % 0 % 0 % 0 m²/s² 0 0 4.03 2
13:00 9 J/kg 0.5 K 0 % 0 % 0 % 0 m²/s² 0 0 3.29 2
14:00 49 J/kg 0.3 K 0 % 0 % 0 % 0 m²/s² 0 0 4.2 1
15:00 55 J/kg 0.3 K 0 % 0 % 0 % 0 m²/s² 0 0 3.63 1
16:00 20 J/kg 0.4 K 0 % 0 % 0 % 0 m²/s² 0 0 2.5 1
17:00 9 J/kg 0.0 K 0 % 0 % 0 % 0 m²/s² 0 0 2.7 2
18:00 22 J/kg -0.6 K 0 % 0 % 0 % 0 m²/s² 0 0 1.8 2
19:00 13 J/kg 0.2 K 0 % 0 % 0 % 0 m²/s² 0 0 1.67 2
20:00 0 J/kg 0.5 K 0 % 0 % 0 % 0 m²/s² 0 0 2.99 2
21:00 0 J/kg 0.1 K 0 % 0 % 0 % 0 m²/s² 0 0 4.06 1
22:00 0 J/kg -0.2 K 0 % 0 % 0 % 0 m²/s² 0 0 2.08 1
Temp Baro Wind Neerslag
  EWN Forecast EWN WRFDA DWD ICON FMI HIRLAM MET Norway GFS
 08:13     16:24    Daglengte: 8:11 Morgen
00:00 6.5° 1004.3 hPa 5.3 m/s 1.1 mm 7.4° 1002.1 hPa 5.4 m/s 4.6 mm 6.7° 1004.5 hPa 3.5 m/s -0.4 mm 8.4° 1003.9 hPa 7.2 m/s 0.0 mm 6.7° 1004.4 hPa 6.1 m/s 7.0° 1004.3 hPa 4.1 m/s
03:00 7.0° 1001.1 hPa 4.3 m/s 1.6 mm 7.8° 998.9 hPa 5.1 m/s 7.1 mm 7.3° 1001.2 hPa 2.2 m/s 0.2 mm 8.5° 1000.8 hPa 7.1 m/s 0.0 mm 6.8° 1001.4 hPa 4.1 m/s 7.5° 1000.7 hPa 4.3 m/s
06:00 7.1° 999.0 hPa 4.6 m/s 2.9 mm 7.6° 997.1 hPa 4.9 m/s 9.2 mm 7.5° 998.9 hPa 1.9 m/s 2.0 mm 7.7° 999.2 hPa 7.1 m/s 0.0 mm 6.9° 999.9 hPa 4.8 m/s 7.4° 998.6 hPa 3.9 m/s
09:00 7.5° 998.3 hPa 4.5 m/s 5.4 mm 7.1° 995.7 hPa 2.7 m/s 13.5 mm 7.7° 998.5 hPa 1.5 m/s 4.2 mm 7.7° 998.4 hPa 8.8 m/s 0.0 mm 6.7° 999.4 hPa 3.7 m/s 7.6° 997.4 hPa 4.4 m/s
12:00 8.3° 996.5 hPa 7.3 m/s 6.0 mm 8.2° 994.1 hPa 6.9 m/s 22.2 mm 9.0° 995.9 hPa 7.4 m/s 5.2 mm 7.9° 997.3 hPa 7.3 m/s 0.0 mm 8.3° 997.5 hPa 6.8 m/s 9.4° 995.9 hPa 9.0 m/s
15:00 8.8° 993.3 hPa 7.1 m/s 7.2 mm 9.2° 989.5 hPa 9.1 m/s 30.4 mm 9.3° 993.1 hPa 6.7 m/s 4.5 mm 9.6° 994.4 hPa 6.8 m/s 0.0 mm 8.3° 994.1 hPa 6.5 m/s 9.3° 991.4 hPa 8.4 m/s
18:00 9.1° 990.2 hPa 9.3 m/s 7.9 mm 9.5° 987.2 hPa 9.6 m/s 39.3 mm 9.1° 990.2 hPa 6.0 m/s 3.8 mm 9.8° 991.6 hPa 9.8 m/s 0.0 mm 8.9° 990.4 hPa 9.4 m/s 10.1° 989.2 hPa 9.0 m/s
21:00 9.2° 987.8 hPa 9.1 m/s 9.2 mm 9.5° 984.5 hPa 9.2 m/s 43.4 mm 9.3° 988.1 hPa 5.2 m/s 3.8 mm 9.7° 988.9 hPa 9.1 m/s 0.0 mm 9.0° 987.9 hPa 9.7 m/s 10.1° 986.8 hPa 8.4 m/s
 08:11     16:26    Daglengte: 8:15 Woensdag 20 Jan
00:00 9.4° 985.7 hPa 8.4 m/s 9.6 mm 9.7° 983.1 hPa 8.3 m/s 52.4 mm 9.8° 985.6 hPa 6.7 m/s 1.3 mm 10.1° 985.9 hPa 7.9 m/s 0.0 mm 9.0° 986.7 hPa 8.8 m/s 10.1° 985.2 hPa 7.7 m/s
03:00 8.7° 984.5 hPa 7.2 m/s 15.0 mm 8.5° 982.3 hPa 5.0 m/s 57.2 mm 9.9° 985.2 hPa 6.7 m/s 0.1 mm 5.7° 985.0 hPa 3.8 m/s 0.0 mm 8.9° 984.7 hPa 8.1 m/s 10.0° 984.0 hPa 7.7 m/s
06:00 8.6° 982.9 hPa 5.9 m/s 11.5 mm 6.4° 982.8 hPa 2.9 m/s 58.9 mm 9.5° 984.4 hPa 4.1 m/s 1.8 mm 6.2° 985.0 hPa 3.8 m/s 0.0 mm 8.9° 982.7 hPa 8.1 m/s 9.4° 983.8 hPa 5.1 m/s
09:00 8.1° 982.2 hPa 5.2 m/s 11.0 mm 5.0° 982.3 hPa 2.8 m/s 61.1 mm 9.2° 983.1 hPa 3.7 m/s 3.6 mm 4.9° 984.9 hPa 2.1 m/s 0.0 mm 8.5° 982.1 hPa 6.8 m/s 7.9° 983.2 hPa 0.8 m/s
12:00 8.8° 980.2 hPa 5.8 m/s 12.7 mm 4.3° 981.4 hPa 2.5 m/s 66.6 mm 10.0° 980.2 hPa 5.4 m/s 5.2 mm 4.5° 984.4 hPa 1.8 m/s 0.0 mm 9.6° 980.1 hPa 6.7 m/s 7.2° 982.1 hPa 1.3 m/s
15:00 8.4° 976.6 hPa 5.6 m/s 13.3 mm 0.9° 978.3 hPa 3.7 m/s 80.4 mm 10.0° 977.3 hPa 5.6 m/s 2.3 mm 9.6° 976.5 hPa 6.7 m/s 6.2° 978.2 hPa 3.4 m/s
18:00 7.6° 975.5 hPa 6.4 m/s 18.4 mm 0.3° 975.0 hPa 5.0 m/s 107.2 mm 8.9° 976.4 hPa 2.5 m/s 0.7 mm 9.3° 975.2 hPa 7.0 m/s 5.2° 976.0 hPa 4.7 m/s
21:00 6.9° 973.4 hPa 6.4 m/s 18.8 mm 0.4° 971.5 hPa 7.8 m/s 135.2 mm 8.2° 972.2 hPa 3.2 m/s 2.5 mm 8.6° 972.9 hPa 6.7 m/s 5.2° 972.2 hPa 1.5 m/s
 08:10     16:28    Daglengte: 8:18 Donderdag 21 Jan
00:00 2.1° 972.3 hPa 6.3 m/s 36.3 mm 0.5° 967.4 hPa 11.0 m/s 168.6 mm 2.2° 971.6 hPa 5.5 m/s 2.9 mm 2.4° 971.8 hPa 5.6 m/s 5.3° 968.2 hPa 2.7 m/s
03:00 1.3° 972.5 hPa 9.5 m/s 31.3 mm 0.8° 969.2 hPa 14.8 m/s 187.3 mm 1.3° 974.5 hPa 8.2 m/s 1.5 mm 1.6° 971.2 hPa 9.4 m/s 1.3° 968.5 hPa 12.7 m/s
06:00 2.1° 975.6 hPa 10.0 m/s 26.7 mm 0.9° 972.0 hPa 11.2 m/s 193.2 mm 2.9° 977.5 hPa 9.8 m/s 0.1 mm 2.0° 974.8 hPa 10.0 m/s 2.6° 971.6 hPa 12.5 m/s
09:00 2.0° 978.7 hPa 8.8 m/s 0.0 mm 0.9° 973.8 hPa 11.5 m/s 193.3 mm 3.0° 981.7 hPa 7.9 m/s 0.0 mm 1.8° 978.1 hPa 8.7 m/s 2.8° 974.9 hPa 11.7 m/s
12:00 3.0° 979.9 hPa 8.7 m/s 0.0 mm 1.9° 976.6 hPa 11.6 m/s 193.3 mm 4.7° 983.1 hPa 7.4 m/s 0.0 mm 2.7° 979.1 hPa 8.3 m/s 2.6° 980.1 hPa 8.7 m/s
15:00 2.6° 979.8 hPa 8.1 m/s 0.0 mm 2.1° 977.9 hPa 9.7 m/s 193.7 mm 4.1° 982.4 hPa 6.0 m/s 0.0 mm 2.4° 979.5 hPa 8.4 m/s 3.3° 981.2 hPa 7.0 m/s
18:00 2.1° 980.4 hPa 7.1 m/s 0.0 mm 1.5° 979.3 hPa 7.1 m/s 194.8 mm 2.3° 982.8 hPa 3.0 m/s 0.0 mm 2.1° 980.0 hPa 8.4 m/s 2.7° 982.6 hPa 6.8 m/s
21:00 1.8° 981.5 hPa 7.0 m/s 0.0 mm 0.6° 980.5 hPa 6.8 m/s 195.4 mm 1.5° 983.0 hPa 3.3 m/s 0.0 mm 2.2° 981.4 hPa 8.2 m/s 2.4° 984.0 hPa 6.1 m/s
 08:09     16:30    Daglengte: 8:21 Vrijdag 22 Jan
00:00 1.6° 982.9 hPa 7.0 m/s 0.0 mm 1.0° 982.0 hPa 6.7 m/s 195.6 mm 0.8° 984.5 hPa 4.4 m/s 0.0 mm 2.2° 982.7 hPa 8.0 m/s 2.1° 985.9 hPa 5.8 m/s
03:00 2.0° 985.8 hPa 7.5 m/s 87.0 mm 2.0° 985.6 hPa 7.7 m/s 1.7° 988.2 hPa 5.5 m/s 86.9 mm
06:00 1.9° 987.3 hPa 7.3 m/s 87.0 mm 1.9° 987.0 hPa 7.6 m/s 1.4° 990.2 hPa 4.6 m/s 86.9 mm
09:00 2.8° 988.9 hPa 7.3 m/s 87.0 mm 3.0° 988.5 hPa 7.6 m/s 1.4° 992.2 hPa 4.1 m/s 86.9 mm
12:00 4.0° 990.4 hPa 7.4 m/s 87.0 mm 4.0° 990.1 hPa 7.6 m/s 3.7° 993.6 hPa 4.9 m/s 87.0 mm
15:00 2.8° 991.0 hPa 6.6 m/s 87.0 mm 2.7° 990.8 hPa 6.8 m/s 3.5° 994.1 hPa 3.5 m/s 87.0 mm
18:00 1.4° 991.7 hPa 5.7 m/s 87.0 mm 1.4° 991.4 hPa 6.1 m/s 1.7° 994.9 hPa 1.6 m/s 87.0 mm
21:00 0.8° 992.1 hPa 4.4 m/s 87.0 mm 0.7° 991.9 hPa 4.7 m/s 1.4° 994.1 hPa 1.1 m/s 87.0 mm
 08:07     16:32    Daglengte: 8:25 Zaterdag 23 Jan
00:00 0.1° 992.5 hPa 3.0 m/s 87.1 mm 0.0° 992.4 hPa 3.2 m/s 1.4° 993.6 hPa 0.6 m/s 87.1 mm
03:00 -0.4° 992.1 hPa 3.1 m/s 87.4 mm -0.5° 992.0 hPa 3.2 m/s 0.6° 993.2 hPa 1.7 m/s 87.4 mm
06:00 -0.9° 991.7 hPa 3.2 m/s 87.7 mm -1.0° 991.6 hPa 3.3 m/s 0.2° 992.7 hPa 2.5 m/s 87.7 mm
09:00 0.5° 992.4 hPa 4.1 m/s 87.7 mm 0.6° 992.3 hPa 4.2 m/s -0.1° 993.8 hPa 2.1 m/s 87.7 mm
12:00 2.1° 993.1 hPa 5.0 m/s 87.7 mm 2.2° 993.0 hPa 5.2 m/s 1.5° 994.3 hPa 2.3 m/s 87.7 mm
15:00 1.0° 994.3 hPa 5.1 m/s 87.7 mm 1.0° 994.3 hPa 5.2 m/s 1.7° 994.6 hPa 3.5 m/s 87.7 mm
18:00 -0.2° 995.6 hPa 5.2 m/s 87.7 mm -0.3° 995.6 hPa 5.3 m/s 0.4° 995.4 hPa 3.7 m/s 87.7 mm
21:00 -0.2° 997.2 hPa 5.0 m/s 87.7 mm -0.2° 997.4 hPa 5.1 m/s 0.1° 995.7 hPa 3.6 m/s 87.7 mm
 08:06     16:34    Daglengte: 8:28 Zondag 24 Jan
00:00 -0.1° 998.8 hPa 4.7 m/s 87.7 mm -0.1° 999.1 hPa 4.9 m/s -0.3° 995.4 hPa 2.9 m/s 87.7 mm
03:00 -0.8° 998.8 hPa 4.2 m/s 88.1 mm -0.8° 999.2 hPa 4.5 m/s -0.2° 995.0 hPa 1.2 m/s 88.1 mm
06:00 -1.5° 998.9 hPa 3.8 m/s 92.0 mm -1.6° 999.3 hPa 4.0 m/s 0.1° 995.1 hPa 1.6 m/s 92.0 mm
09:00 0.3° 998.8 hPa 4.6 m/s 92.1 mm 0.3° 999.0 hPa 4.8 m/s -0.3° 996.6 hPa 2.9 m/s 92.1 mm
12:00 2.1° 998.6 hPa 5.4 m/s 92.1 mm 2.2° 998.6 hPa 5.6 m/s 1.2° 998.1 hPa 3.3 m/s 92.1 mm
15:00 1.3° 999.6 hPa 4.7 m/s 92.1 mm 1.3° 999.6 hPa 4.8 m/s 1.4° 999.2 hPa 3.7 m/s 92.1 mm
18:00 0.4° 1000.6 hPa 4.0 m/s 92.1 mm 0.4° 1000.6 hPa 4.0 m/s -0.0° 1000.6 hPa 3.4 m/s 92.1 mm
21:00 0.3° 1002.8 hPa 4.2 m/s 92.1 mm 0.3° 1002.9 hPa 4.3 m/s -0.4° 1002.3 hPa 3.4 m/s 92.1 mm
 08:04     16:36    Daglengte: 8:32 Maandag 25 Jan
00:00 0.2° 1005.0 hPa 4.4 m/s 92.1 mm 0.3° 1005.1 hPa 4.6 m/s -1.0° 1003.5 hPa 2.7 m/s 92.1 mm
03:00 1.0° 1005.8 hPa 5.1 m/s 92.1 mm 1.1° 1005.8 hPa 5.2 m/s -0.0° 1005.8 hPa 3.3 m/s 92.1 mm
06:00 1.8° 1006.5 hPa 5.8 m/s 92.1 mm 1.9° 1006.4 hPa 5.9 m/s 0.5° 1007.3 hPa 4.6 m/s 92.1 mm
09:00 2.8° 1008.0 hPa 5.6 m/s 92.1 mm 3.0° 1007.9 hPa 5.8 m/s 0.1° 1009.4 hPa 3.3 m/s 92.1 mm
12:00 4.1° 1009.5 hPa 5.8 m/s 92.1 mm 4.2° 1009.4 hPa 5.8 m/s 2.4° 1010.2 hPa 5.9 m/s 92.1 mm
15:00 2.7° 1009.2 hPa 4.5 m/s 92.1 mm 2.7° 1009.0 hPa 4.3 m/s 2.3° 1011.0 hPa 5.7 m/s 92.1 mm
18:00 1.2° 1009.0 hPa 3.0 m/s 92.1 mm 1.2° 1008.7 hPa 2.9 m/s 0.7° 1011.7 hPa 3.5 m/s 92.1 mm
21:00 0.9° 1006.2 hPa 3.2 m/s 92.1 mm 0.9° 1005.7 hPa 3.2 m/s 0.4° 1012.1 hPa 2.8 m/s 92.1 mm
 08:03     16:38    Daglengte: 8:35 Dinsdag 26 Jan
00:00 0.6° 1003.3 hPa 3.5 m/s 92.1 mm 0.6° 1002.6 hPa 3.6 m/s 0.2° 1011.0 hPa 2.1 m/s 92.1 mm
06:00 5.3° 998.9 hPa 7.2 m/s 96.0 mm 5.7° 998.6 hPa 7.5 m/s 0.8° 1002.6 hPa 3.5 m/s 96.0 mm
12:00 5.1° 999.2 hPa 4.2 m/s 98.0 mm 5.0° 999.4 hPa 4.0 m/s 5.6° 997.5 hPa 6.4 m/s 98.0 mm
18:00 6.7° 992.7 hPa 7.1 m/s 98.0 mm 6.8° 992.2 hPa 7.0 m/s 6.0° 998.1 hPa 8.4 m/s 98.0 mm
 08:01     16:39    Daglengte: 8:38 Woensdag 27 Jan
00:00 8.1° 991.8 hPa 9.2 m/s 98.2 mm 8.3° 991.4 hPa 9.5 m/s 5.3° 996.6 hPa 5.6 m/s 98.2 mm
06:00 6.8° 992.8 hPa 10.8 m/s 100.7 mm 6.8° 992.6 hPa 10.8 m/s 6.8° 995.2 hPa 10.4 m/s 100.7 mm
12:00 6.9° 999.1 hPa 9.3 m/s 100.9 mm 7.0° 998.9 hPa 9.5 m/s 6.0° 1001.7 hPa 6.7 m/s 100.9 mm
18:00 4.4° 1002.4 hPa 5.2 m/s 101.0 mm 4.5° 1001.9 hPa 5.4 m/s 3.1° 1007.6 hPa 2.8 m/s 101.0 mm
 08:00     16:41    Daglengte: 8:41 Donderdag 28 Jan
00:00 3.5° 1003.3 hPa 3.3 m/s 101.0 mm 3.7° 1002.8 hPa 3.5 m/s 1.6° 1009.3 hPa 1.1 m/s 101.0 mm
06:00 3.9° 1005.8 hPa 5.4 m/s 101.0 mm 4.2° 1005.6 hPa 5.7 m/s 0.6° 1007.7 hPa 2.2 m/s 101.0 mm
12:00 3.7° 1010.9 hPa 4.2 m/s 101.1 mm 3.7° 1010.9 hPa 4.2 m/s 101.1 mm
18:00 4.3° 997.3 hPa 1.0 m/s 2.4 mm
 07:58     16:43    Daglengte: 8:45 Vrijdag 29 Jan
00:00 3.7° 998.2 hPa 0.7 m/s 2.3 mm
06:00 3.2° 999.2 hPa 1.6 m/s 1.1 mm
12:00 4.8° 1000.6 hPa 1.9 m/s 1.2 mm
18:00 3.9° 1000.5 hPa 2.3 m/s 1.9 mm
 07:56     16:45    Daglengte: 8:49 Zaterdag 30 Jan
00:00 3.8° 999.7 hPa 3.1 m/s 2.4 mm
06:00 4.0° 998.1 hPa 3.7 m/s 1.3 mm
12:00 5.5° 998.0 hPa 3.5 m/s 1.1 mm
18:00 4.3° 997.6 hPa 2.3 m/s 0.7 mm
 07:55     16:47    Daglengte: 8:52 Zondag 31 Jan
00:00 3.4° 998.4 hPa 1.2 m/s 0.9 mm
06:00 3.2° 997.9 hPa 1.5 m/s 1.7 mm
12:00 4.3° 1000.3 hPa 2.8 m/s 1.1 mm
18:00 3.0° 1001.0 hPa 2.2 m/s 0.5 mm
 07:53     16:49    Daglengte: 8:56 Maandag 01 Feb
00:00 2.5° 1001.6 hPa 2.7 m/s 0.9 mm
06:00 2.1° 1000.8 hPa 2.8 m/s 0.7 mm
12:00 4.5° 1002.1 hPa 3.7 m/s 0.5 mm
18:00 2.8° 1002.9 hPa 2.1 m/s 0.4 mm
 07:51     16:51    Daglengte: 9:00 Dinsdag 02 Feb
00:00 2.1° 1004.2 hPa 2.2 m/s 0.7 mm
06:00 1.8° 1004.2 hPa 2.0 m/s 0.5 mm
12:00 4.5° 1005.5 hPa 2.8 m/s 0.7 mm
18:00 2.9° 1006.2 hPa 2.0 m/s 0.7 mm
FMI Hirlam - 7.5 km EWN WRFDA - 12 km DWD ICON - 7 km GFS - 25 km Basiskaart






























































Updatetijd (Europe/Brussels) Resolutie Lengte Stap
FMI Hirlam 18:15, 00:15, 06:15, 12:15 7.5 km 49h 1h
EWN WRFDA 21:30, 03:30, 09:30, 15:30 12 km 73h 1h
DWD ICON 22:45, 04:45, 10:45, 16:45 7 km 75h 1h
GFS 18:45, 00:45, 06:45, 12:45 25 km 237h 3h
30+ mm
25-30 mm
20-25 mm
15-20 mm
10-15 mm
6-10 mm
4-6 mm
2-4 mm
1-2 mm
0.5-1 mm
0.2-0.5 mm
0.1-0.2 mm
30+ mm
25-30 mm
20-25 mm
15-20 mm
10-15 mm
6-10 mm
4-6 mm
2-4 mm
1-2 mm
0.5-1 mm
0.2-0.5 mm
0.1-0.2 mm
Sneeuwval
Natte sneeuw
Hagel
Vorst
30+ mm
25-30 mm
20-25 mm
15-20 mm
10-15 mm
6-10 mm
4-6 mm
2-4 mm
1-2 mm
0.5-1 mm
0.2-0.5 mm
0.1-0.2 mm
Sneeuwval
Natte sneeuw
Hagel
Vorst
Onweer
50 mm
40 mm
30 mm
26 mm
22 mm
18 mm
14 mm
10 mm
9 mm
8 mm
7 mm
6 mm
5 mm
4.5 mm
4 mm
3.5 mm
3 mm
2.5 mm
2 mm
1.5 mm
1 mm
0.8 mm
0.6 mm
0.4 mm
0.2 mm
0.05 mm
35°
30°
25°
20°
15°
10°
-5°
-10°
-15°
-20°
-25°
-30°
-35°
33> m/s
29 m/s
25 m/s
21 m/s
17 m/s
14 m/s
11 m/s
8 m/s
5 m/s
3 m/s
0 m/s
2600 J/kg
2400 J/kg
2200 J/kg
2000 J/kg
1800 J/kg
1600 J/kg
1400 J/kg
1200 J/kg
1000 J/kg
800 J/kg
600 J/kg
400 J/kg
200 J/kg
70 dBZ
65 dBZ
60 dBZ
55 dBZ
50 dBZ
45 dBZ
40 dBZ
35 dBZ
30 dBZ
25 dBZ
20 dBZ
15 dBZ
10 dBZ
5 dBZ
-1 K
-2 K
-3 K
-4 K
-5 K
-6 K
-7 K
-8 K
-9 K
950 m²/s²
900 m²/s²
850 m²/s²
800 m²/s²
750 m²/s²
700 m²/s²
650 m²/s²
600 m²/s²
550 m²/s²
500 m²/s²
450 m²/s²
400 m²/s²
350 m²/s²
300 m²/s²
250 m²/s²
200 m²/s²
150 m²/s²
100 m²/s²
46 m/s
44 m/s
42 m/s
40 m/s
38 m/s
36 m/s
34 m/s
32 m/s
30 m/s
28 m/s
26 m/s
24 m/s
22 m/s
20 m/s
16 m/s
12 m/s
8 m/s
4 m/s
30 m/s
28 m/s
26 m/s
24 m/s
22 m/s
20 m/s
18 m/s
16 m/s
14 m/s
12 m/s
10 m/s
8 m/s
6 m/s
4 m/s
2 m/s
3.0
2.8
2.6
2.4
2.2
2.0
1.8
1.6
1.4
1.2
1.0
0.8
0.6
0.4
0.2
15
14
13
12
11
10
9
8
7
6
5
4
3
2
1
90%
80%
70%
60%
50%
40%
30%
20%
10%
42
40
38
36
34
32
30
28
26
24
22
20
18
16
14
12
90+ cm
80-90 cm
70-80 cm
60-70 cm
50-60 cm
40-50 cm
30-40 cm
20-30 cm
10-20 cm
1-10 cm
Sneeuwval
Natte sneeuw
Regen
>120 mm
115 mm
110 mm
105 mm
100 mm
95 mm
90 mm
85 mm
80 mm
75 mm
70 mm
65 mm
60 mm
55 mm
50 mm
45 mm
45 mm
40 mm
35 mm
30 mm
25 mm
20 mm
15 mm
10 mm
5 mm
0.1 mm
960 hPa
880 hPa
800 hPa
720 hPa
640 hPa
560 hPa
584 gpdm
568 gpdm
552 gpdm
536 gpdm